Ypsilanti, MI

9:36 PM EDT on June 25, 2017 (GMT -0400)
Willow Run

Weather History for KYIP - May, 2013

Change the Weather History Date:

Wednesday, May 22, 2013

  Actual Average Record
Temperature  
Mean Temperature 75 °F -  
Max Temperature 86 °F 74 °F 88 °F (2011)
Min Temperature 64 °F 52 °F 34 °F (2006)
Cooling Degree Days 10    
Growing Degree Days 25 (Base 50)    
Moisture  
Dew Point 61 °F    
Average Humidity 68    
Maximum Humidity 81    
Minimum Humidity 40    
Precipitation  
Precipitation 0.10 in - - ()
Sea Level Pressure  
Sea Level Pressure 29.70 in    
Wind  
Wind Speed 10 mph (SSW)    
Max Wind Speed 24 mph    
Max Gust Speed 37 mph    
Visibility 10 miles    
Events Rain    
Averages and records for this station are not official NWS values.
T = Trace of Precipitation, MM = Missing Value Source: NWS Daily Summary

Daily Weather History Graph

Daily Weather History Graph

Search for Another Location

Airport or City:

Trip Planner

Search our weather history database for the weather conditions in past years. The results will help you decide how hot, cold, wet, or windy it might be!

Date:

Astronomy

May. 22, 2013 Rise Set
Actual Time 6:06 AM EDT 8:55 PM EDT
Civil Twilight 5:33 AM EDT 9:28 PM EDT
Nautical Twilight 4:52 AM EDT 10:10 PM EDT
Astronomical Twilight 4:04 AM EDT 10:58 PM EDT
Moon 6:14 PM EDT (5/22) 4:13 AM EDT (5/22)
Length of Visible Light 15h 55m
Length of Day
14h 49m
Waxing Gibbous, 91% of the Moon is Illuminated
May 22
Waxing Gibbous
May 25
Full
May 31
Last Quarter
Jun 8
New
Jun 16
First Quarter

Hourly Weather History & Observations

Time (EDT) Temp. Heat Index Dew Point Humidity Pressure Visibility Wind Dir Wind Speed Gust Speed Precip Events Conditions
12:53 AM 70.0 °F - 62.1 °F 76% 29.74 in 10.0 mi South 6.9 mph - N/A   Clear
1:53 AM 69.1 °F - 61.0 °F 75% 29.73 in 10.0 mi South 6.9 mph - N/A   Clear
2:53 AM 69.1 °F - 60.1 °F 73% 29.73 in 10.0 mi South 4.6 mph - N/A   Clear
3:53 AM 68.0 °F - 59.0 °F 73% 29.72 in 10.0 mi South 8.1 mph - N/A   Clear
4:53 AM 70.0 °F - 61.0 °F 73% 29.72 in 10.0 mi SSW 8.1 mph - N/A   Clear
5:53 AM 71.1 °F - 60.1 °F 68% 29.72 in 10.0 mi South 10.4 mph - N/A   Mostly Cloudy
6:53 AM 71.1 °F - 60.1 °F 68% 29.73 in 10.0 mi South 8.1 mph - N/A   Overcast
7:53 AM 70.0 °F - 61.0 °F 73% 29.74 in 9.0 mi South 9.2 mph - 0.00 in Rain Light Rain
8:53 AM 72.0 °F - 63.0 °F 73% 29.74 in 10.0 mi South 13.8 mph 20.7 mph 0.01 in   Overcast
9:53 AM 73.9 °F - 63.0 °F 68% 29.72 in 9.0 mi South 13.8 mph 18.4 mph N/A   Partly Cloudy
10:53 AM 75.0 °F - 63.0 °F 66% 29.71 in 10.0 mi SSW 13.8 mph 19.6 mph N/A   Mostly Cloudy
11:53 AM 78.1 °F - 63.0 °F 60% 29.71 in 10.0 mi SSW 18.4 mph 23.0 mph N/A   Mostly Cloudy
12:53 PM 75.0 °F - 62.1 °F 64% 29.69 in 10.0 mi South 16.1 mph 23.0 mph N/A   Overcast
1:53 PM 79.0 °F - 61.0 °F 54% 29.68 in 10.0 mi SSW 23.0 mph 31.1 mph N/A   Mostly Cloudy
2:53 PM 82.0 °F 83.1 °F 63.0 °F 52% 29.67 in 10.0 mi SSW 16.1 mph 24.2 mph N/A   Scattered Clouds
3:53 PM 86.0 °F 85.4 °F 59.0 °F 40% 29.64 in 10.0 mi SSW 15.0 mph 28.8 mph N/A   Scattered Clouds
4:53 PM 82.0 °F 81.6 °F 55.9 °F 41% 29.62 in 10.0 mi SW 24.2 mph 36.8 mph N/A   Mostly Cloudy
5:53 PM 70.0 °F - 63.0 °F 78% 29.66 in 10.0 mi SW 16.1 mph 23.0 mph 0.06 in Rain Light Rain
6:53 PM 73.0 °F - 62.1 °F 68% 29.65 in 10.0 mi SSW 13.8 mph - 0.00 in   Partly Cloudy
7:53 PM 73.0 °F - 62.1 °F 68% 29.66 in 10.0 mi SW 9.2 mph - N/A   Partly Cloudy
8:53 PM 69.1 °F - 61.0 °F 75% 29.69 in 9.0 mi West 9.2 mph - 0.03 in Rain Light Rain
9:53 PM 64.0 °F - 57.9 °F 80% 29.70 in 10.0 mi SSW 6.9 mph - 0.00 in   Scattered Clouds
10:53 PM 64.9 °F - 57.9 °F 78% 29.70 in 10.0 mi SW 8.1 mph - N/A   Overcast
11:53 PM 64.9 °F - 59.0 °F 81% 29.70 in 10.0 mi WSW 8.1 mph - N/A   Partly Cloudy